Location: Beverley
(50.2667°N, 107.9667°W)
Time: 23:35:35
(UTC+00:00)

Envisat - Pass Details

Date: 21 January 2022
Orbit: 764 x 765 km, 98.2° (Epoch: 22 May)

Event Time Altitude Azimuth Distance (km) Brightness Sun altitude
Rises 10:43:54 0° 28° (NNE) 3,242 6.8 -40.3°
Reaches altitude 10° 10:47:13 10° 51° (NE) 2,310 6.1 -39.7°
Maximum altitude 10:50:09 15° 87° (E) 1,960 5.7 -39.3°
Drops below altitude 10° 10:53:05 10° 122° (ESE) 2,300 5.8 -38.9°
Sets 10:56:22 0° 145° (SE) 3,220 6.4 -38.4°
